Skip Page Navigation
NASA JPL Caltech
NASA Logo - Jet Propulsion Laboratory + View the NASA Portal
+ Near-Earth Object (NEO) Program
Search JPL
JPL Home Earth Solar System Stars & Galaxies Technology
JPL Solar System Dynamics
BODIES ORBITS EPHEMERIDES TOOLS PHYSICAL DATA DISCOVERY FAQ SITE MAP
JPL Small-Body Database Browser
Search: [ help ]  
(2011 BO24)
Classification: Apollo [NEO, PHA]          SPK-ID: 3409641
Ephemeris | Orbit Diagram | Orbital Elements | Physical Parameters | Close-Approach Data ]

[ hide orbit diagram ]
Orbit Diagram
Note: Make sure you have Java enabled on your browser to see the applet. This applet is provided as a 3D orbit visualization tool. The applet was implemented using 2-body methods, and hence should not be used for determining accurate long-term trajectories (over several years or decades) or planetary encounter circumstances. For accurate long-term ephemerides, please instead use our Horizons system.
Orbit Viewer

Additional Notes: the orbits shown in the applet are color coded. The planets are white lines, and the asteroid/comet is a blue line. The bright white line indicates the portion of the orbit that is above the ecliptic plane, and the darker portion is below the ecliptic plane. Likewise for the asteroid/comet orbit, the light blue indicates the portion above the ecliptic plane, and the dark blue the portion below the ecliptic plane.

Orbit Viewer applet originally written and kindly provided by Osamu Ajiki (AstroArts), and further modified by Ron Baalke (JPL).


Orbital Elements at Epoch 2456400.5 (2013-Apr-18.0) TDB
Reference: JPL 8 (heliocentric ecliptic J2000)
 Element Value Uncertainty (1-sigma)   Units 
e .2779666594369292 2.3835e-06  
a 1.380367451770234 7.5208e-06 AU
q .9966713224061957 4.992e-06 AU
i 20.3718492549963 0.0014983 deg
node 91.51608655401664 0.0015312 deg
peri 178.5465776593518 0.0031383 deg
M 8.100330804405377 0.010678 deg
tp 2456387.171209349631
(2013-Apr-04.67120935)
0.017462 JED
period 592.366503294296
1.62
0.0048412
1.325e-05
d
yr
n .6077318653197832 4.9668e-06 deg/d
Q 1.764063581134273 9.6114e-06 AU
  Orbit Determination Parameters
   # obs. used (total)      68  
   data-arc span      1040 days (2.85 yr)  
   first obs. used      2008-04-25  
   last obs. used      2011-03-01  
   planetary ephem.      DE405  
   SB-pert. ephem.      SB405-CPV-2  
   condition code      4  
   fit RMS      .44101  
   data source      ORB  
   producer      Otto Matic  
   solution date      2011-Sep-14 21:04:06  

Additional Information
 Earth MOID = .0192894 AU 
 T_jup = 4.697 
[ show covariance matrix ]

Ephemeris | Orbit Diagram | Orbital Elements | Physical Parameters | Close-Approach Data ]

Physical Parameter Table
Parameter Symbol Value Units Sigma Reference Notes
absolute magnitude H 18.683 mag .26627 8 autocmod 2.5a

[ show close-approach data ]
Alternate Designations
 2011 BO24 = 2008 HL 
Ephemeris | Orbit Diagram | Orbital Elements | Physical Parameters | Close-Approach Data ]
ABOUT SSD CREDITS/AWARDS PRIVACY/COPYRIGHT GLOSSARY LINKS
FirstGov 2013-May-25 14:18 UT
(server date/time)  
NASA Home Page
Site Manager:   Donald K. Yeomans
Webmaster  Alan B. Chamberlin